BTK6244 WIII-WAAA

Flight info

Callsign BTK6244
Flight time N/A
Altitude 36000
Route CA T5 BIMAK
Aircraft A320/M-SDE3FGHIRWY/LB1

Departure

Time 2026-04-30 05:26
Airport Soekarno-Hatta International Airport (WIII)

Arrival

Time N/A
Airport Sultan Hasanuddin International Airport (WAAA)
Time Latitude Longitude Altitude Speed Heading
2026-04-30 05:04 -6.12254 106.64875 36 ft 0 kts 143°
2026-04-30 05:13 -6.12244 106.64868 37 ft 4 kts 145°
2026-04-30 05:13 -6.12221 106.64854 36 ft 4 kts 154°
2026-04-30 05:13 -6.12196 106.64844 38 ft 4 kts 178°
2026-04-30 05:14 -6.12177 106.64850 38 ft 2 kts 241°
2026-04-30 05:14 -6.12174 106.64855 38 ft 0 kts 242°
2026-04-30 05:16 -6.12182 106.64841 38 ft 7 kts 237°
2026-04-30 05:17 -6.12201 106.64807 38 ft 5 kts 251°
2026-04-30 05:17 -6.12192 106.64746 38 ft 10 kts 303°
2026-04-30 05:17 -6.12144 106.64718 38 ft 7 kts 340°
2026-04-30 05:17 -6.12086 106.64690 36 ft 8 kts 308°
2026-04-30 05:18 -6.12092 106.64622 36 ft 14 kts 250°
2026-04-30 05:18 -6.12123 106.64541 36 ft 10 kts 249°
2026-04-30 05:18 -6.12146 106.64484 36 ft 9 kts 248°
2026-04-30 05:18 -6.12158 106.64438 38 ft 5 kts 270°
2026-04-30 05:19 -6.12131 106.64405 38 ft 11 kts 334°
2026-04-30 05:19 -6.12077 106.64422 37 ft 7 kts 62°
2026-04-30 05:19 -6.12054 106.64470 37 ft 13 kts 68°
2026-04-30 05:19 -6.12019 106.64558 38 ft 14 kts 68°
2026-04-30 05:20 -6.11981 106.64653 38 ft 14 kts 68°
2026-04-30 05:20 -6.11945 106.64745 38 ft 14 kts 68°
2026-04-30 05:20 -6.11909 106.64834 36 ft 13 kts 68°
2026-04-30 05:20 -6.11876 106.64920 38 ft 13 kts 68°
2026-04-30 05:21 -6.11836 106.65016 37 ft 17 kts 68°
2026-04-30 05:21 -6.11786 106.65143 38 ft 21 kts 68°
2026-04-30 05:21 -6.11730 106.65281 37 ft 22 kts 68°
2026-04-30 05:21 -6.11673 106.65423 38 ft 22 kts 68°
2026-04-30 05:22 -6.11613 106.65571 37 ft 23 kts 69°
2026-04-30 05:22 -6.11554 106.65724 35 ft 24 kts 68°
2026-04-30 05:22 -6.11491 106.65882 37 ft 25 kts 68°
2026-04-30 05:22 -6.11426 106.66043 37 ft 25 kts 68°
2026-04-30 05:23 -6.11360 106.66207 38 ft 26 kts 68°
2026-04-30 05:23 -6.11293 106.66377 38 ft 27 kts 68°
2026-04-30 05:23 -6.11224 106.66553 38 ft 28 kts 68°
2026-04-30 05:23 -6.11151 106.66732 36 ft 26 kts 68°
2026-04-30 05:24 -6.11101 106.66857 38 ft 19 kts 68°
2026-04-30 05:24 -6.11059 106.66954 36 ft 11 kts 52°
2026-04-30 05:24 -6.10991 106.66970 37 ft 12 kts 338°
2026-04-30 05:24 -6.10933 106.66907 34 ft 12 kts 316°
2026-04-30 05:25 -6.10906 106.66861 36 ft 7 kts 261°
2026-04-30 05:25 -6.10937 106.66784 34 ft 29 kts 248°
2026-04-30 05:25 -6.11108 106.66357 38 ft 99 kts 248°
2026-04-30 05:25 -6.11434 106.65536 36 ft 152 kts 248°
2026-04-30 05:26 -6.11889 106.64440 239 ft 178 kts 245°
2026-04-30 05:26 -6.12358 106.63278 886 ft 180 kts 246°
2026-04-30 05:26 -6.12649 106.62058 1617 ft 185 kts 274°
2026-04-30 05:26 -6.12325 106.60772 2295 ft 200 kts 287°
2026-04-30 05:27 -6.11825 106.59380 2779 ft 224 kts 289°
2026-04-30 05:27 -6.11241 106.57828 3355 ft 250 kts 290°
2026-04-30 05:27 -6.10611 106.56139 3970 ft 273 kts 291°
2026-04-30 05:27 -6.09947 106.54287 4822 ft 281 kts 290°
2026-04-30 05:28 -6.09139 106.52517 5703 ft 285 kts 307°
2026-04-30 05:28 -6.07685 106.51184 6560 ft 284 kts 333°
2026-04-30 05:28 -6.05811 106.50594 7339 ft 285 kts 359°
2026-04-30 05:28 -6.03874 106.50889 8063 ft 281 kts 23°
2026-04-30 05:29 -6.02197 106.51910 8695 ft 285 kts 43°
2026-04-30 05:29 -6.00957 106.53466 9359 ft 288 kts 62°
2026-04-30 05:29 -6.00290 106.55371 10032 ft 292 kts 80°
2026-04-30 05:29 -6.00001 106.57440 10364 ft 309 kts 82°
2026-04-30 05:30 -5.99519 106.59621 10495 ft 331 kts 67°
2026-04-30 05:30 -5.98443 106.61735 10738 ft 347 kts 60°
2026-04-30 05:30 -5.97248 106.63865 11296 ft 352 kts 61°
2026-04-30 05:30 -5.96173 106.66084 11904 ft 356 kts 72°
2026-04-30 05:31 -5.95883 106.68546 12480 ft 360 kts 94°
2026-04-30 05:31 -5.96181 106.71022 13086 ft 362 kts 96°
2026-04-30 05:31 -5.96504 106.73540 13698 ft 364 kts 96°
2026-04-30 05:31 -5.96834 106.76082 14306 ft 368 kts 96°
2026-04-30 05:32 -5.97073 106.78645 14880 ft 371 kts 90°
2026-04-30 05:32 -5.96989 106.81246 15485 ft 374 kts 87°
2026-04-30 05:32 -5.97031 106.83859 16086 ft 375 kts 94°
2026-04-30 05:32 -5.97524 106.86435 16605 ft 380 kts 106°
2026-04-30 05:33 -5.98475 106.88931 17173 ft 383 kts 110°
2026-04-30 05:33 -5.99508 106.91400 17685 ft 385 kts 111°
2026-04-30 05:33 -6.00585 106.93883 18163 ft 387 kts 111°
2026-04-30 05:33 -6.01670 106.96364 18613 ft 390 kts 111°
2026-04-30 05:34 -6.02766 106.98876 19047 ft 393 kts 112°
2026-04-30 05:34 -6.03858 107.01398 19469 ft 396 kts 111°
2026-04-30 05:34 -6.04950 107.03948 19888 ft 398 kts 111°
2026-04-30 05:34 -6.06042 107.06518 20322 ft 401 kts 111°
2026-04-30 05:35 -6.07132 107.09102 20724 ft 404 kts 111°
2026-04-30 05:35 -6.08237 107.11718 21115 ft 406 kts 111°
2026-04-30 05:35 -6.09334 107.14306 21490 ft 409 kts 111°
2026-04-30 05:35 -6.10453 107.16945 21852 ft 412 kts 111°
2026-04-30 05:36 -6.11578 107.19594 22193 ft 414 kts 112°
2026-04-30 05:36 -6.12713 107.22265 22551 ft 417 kts 112°
2026-04-30 05:36 -6.13854 107.24952 22886 ft 419 kts 112°
2026-04-30 05:36 -6.15003 107.27657 23231 ft 421 kts 112°
2026-04-30 05:37 -6.16154 107.30371 23541 ft 423 kts 112°
2026-04-30 05:37 -6.17306 107.33095 23833 ft 425 kts 112°
2026-04-30 05:37 -6.18466 107.35840 24129 ft 428 kts 112°
2026-04-30 05:37 -6.19627 107.38595 24426 ft 430 kts 112°
2026-04-30 05:38 -6.20798 107.41369 24728 ft 432 kts 112°
2026-04-30 05:38 -6.21976 107.44152 25021 ft 433 kts 112°
2026-04-30 05:38 -6.23158 107.46947 25302 ft 435 kts 112°
2026-04-30 05:38 -6.24347 107.49757 25575 ft 437 kts 112°
2026-04-30 05:39 -6.25523 107.52532 25855 ft 438 kts 112°
2026-04-30 05:39 -6.26720 107.55360 26118 ft 439 kts 112°
2026-04-30 05:39 -6.27918 107.58189 26391 ft 440 kts 112°
2026-04-30 05:39 -6.29121 107.61027 26657 ft 442 kts 112°
2026-04-30 05:40 -6.30327 107.63874 26918 ft 443 kts 112°
2026-04-30 05:40 -6.31534 107.66731 27173 ft 444 kts 112°
2026-04-30 05:40 -6.32743 107.69599 27423 ft 446 kts 112°
2026-04-30 05:40 -6.33950 107.72467 27674 ft 447 kts 112°
2026-04-30 05:41 -6.35164 107.75351 27927 ft 448 kts 112°
2026-04-30 05:41 -6.36384 107.78244 28175 ft 450 kts 112°
2026-04-30 05:41 -6.37613 107.81152 28404 ft 451 kts 112°
2026-04-30 05:41 -6.38840 107.84060 28640 ft 452 kts 112°
2026-04-30 05:42 -6.40056 107.86938 28858 ft 453 kts 112°
2026-04-30 05:42 -6.40889 107.88908 29006 ft 454 kts 112°
2026-04-30 05:42 -6.42528 107.92789 29283 ft 456 kts 112°
2026-04-30 05:42 -6.43768 107.95732 29490 ft 457 kts 112°
2026-04-30 05:43 -6.45010 107.98676 29695 ft 459 kts 112°
2026-04-30 05:43 -6.46258 108.01637 29920 ft 459 kts 112°
2026-04-30 05:43 -6.47092 108.03596 30111 ft 459 kts 112°
2026-04-30 05:43 -6.48362 108.06540 30386 ft 458 kts 113°
2026-04-30 05:44 -6.49642 108.09472 30665 ft 458 kts 113°
2026-04-30 05:44 -6.50926 108.12403 30918 ft 457 kts 113°
2026-04-30 05:44 -6.52205 108.15334 31182 ft 457 kts 113°
2026-04-30 05:44 -6.53480 108.18266 31438 ft 457 kts 113°
2026-04-30 05:45 -6.54753 108.21193 31684 ft 457 kts 113°
2026-04-30 05:45 -6.56026 108.24120 31957 ft 457 kts 113°
2026-04-30 05:45 -6.57298 108.27047 32220 ft 456 kts 113°
2026-04-30 05:45 -6.58570 108.29983 32461 ft 456 kts 113°
2026-04-30 05:46 -6.59836 108.32909 32721 ft 456 kts 113°
2026-04-30 05:46 -6.61100 108.35839 32967 ft 456 kts 112°
2026-04-30 05:46 -6.62360 108.38768 33230 ft 456 kts 112°
2026-04-30 05:46 -6.63623 108.41693 33500 ft 455 kts 113°
2026-04-30 05:47 -6.64870 108.44576 33742 ft 455 kts 113°
2026-04-30 05:47 -6.66148 108.47530 33997 ft 455 kts 113°
2026-04-30 05:47 -6.67412 108.50450 34242 ft 455 kts 113°
2026-04-30 05:47 -6.68542 108.53418 34485 ft 454 kts 105°
2026-04-30 05:48 -6.69172 108.56522 34708 ft 453 kts 96°
2026-04-30 05:48 -6.69260 108.59694 34906 ft 453 kts 86°
2026-04-30 05:48 -6.68897 108.62797 35125 ft 454 kts 82°
2026-04-30 05:48 -6.68473 108.65947 35383 ft 453 kts 83°
2026-04-30 05:49 -6.68063 108.69082 35591 ft 453 kts 83°
2026-04-30 05:49 -6.67659 108.72224 35787 ft 453 kts 83°
2026-04-30 05:49 -6.66855 108.78510 35881 ft 453 kts 83°
2026-04-30 05:50 -6.66030 108.84791 35866 ft 453 kts 83°
2026-04-30 05:50 -6.65199 108.91085 35873 ft 453 kts 83°
2026-04-30 05:51 -6.64366 108.97370 35866 ft 453 kts 83°
2026-04-30 05:51 -6.63543 109.03613 35870 ft 453 kts 83°
2026-04-30 05:52 -6.62719 109.09894 35875 ft 453 kts 83°
2026-04-30 05:52 -6.61891 109.16186 35870 ft 454 kts 83°
2026-04-30 05:53 -6.61056 109.22479 35874 ft 455 kts 82°
2026-04-30 05:53 -6.60221 109.28796 35871 ft 455 kts 83°
2026-04-30 05:54 -6.59386 109.35094 35885 ft 454 kts 83°
2026-04-30 05:54 -6.58551 109.41404 35886 ft 454 kts 83°
2026-04-30 05:55 -6.57718 109.47697 35886 ft 454 kts 83°
2026-04-30 05:55 -6.56891 109.53950 35883 ft 454 kts 82°
2026-04-30 05:56 -6.56051 109.60243 35885 ft 454 kts 82°
2026-04-30 05:56 -6.55211 109.66534 35881 ft 454 kts 82°
2026-04-30 05:57 -6.54372 109.72831 35885 ft 453 kts 82°
2026-04-30 05:57 -6.53543 109.79131 35889 ft 453 kts 83°
2026-04-30 05:58 -6.52711 109.85380 35889 ft 453 kts 82°
2026-04-30 05:58 -6.51864 109.91672 35890 ft 454 kts 82°
2026-04-30 05:59 -6.51019 109.97955 35893 ft 453 kts 82°
2026-04-30 05:59 -6.50178 110.04240 35888 ft 453 kts 82°
2026-04-30 06:00 -6.49340 110.10526 35890 ft 453 kts 82°
2026-04-30 06:00 -6.48497 110.16809 35889 ft 453 kts 82°
2026-04-30 06:01 -6.47661 110.23082 35888 ft 453 kts 82°
2026-04-30 06:01 -6.46832 110.29320 35887 ft 453 kts 82°
2026-04-30 06:02 -6.45985 110.35600 35888 ft 453 kts 82°
2026-04-30 06:02 -6.45139 110.41873 35887 ft 453 kts 82°
2026-04-30 06:03 -6.44309 110.48151 35890 ft 454 kts 82°
2026-04-30 06:03 -6.43479 110.54447 35888 ft 454 kts 82°
2026-04-30 06:04 -6.42653 110.60702 35885 ft 454 kts 82°
2026-04-30 06:05 -6.41402 110.70140 35886 ft 454 kts 82°
2026-04-30 06:05 -6.40562 110.76436 35888 ft 454 kts 82°
2026-04-30 06:06 -6.39726 110.82728 35886 ft 454 kts 82°
2026-04-30 06:06 -6.38895 110.89024 35885 ft 454 kts 82°
2026-04-30 06:07 -6.38067 110.95319 35887 ft 454 kts 82°
2026-04-30 06:07 -6.37238 111.01574 35887 ft 453 kts 82°
2026-04-30 06:08 -6.36391 111.07859 35887 ft 453 kts 82°
2026-04-30 06:08 -6.35551 111.14141 35887 ft 454 kts 82°
2026-04-30 06:09 -6.34714 111.20431 35886 ft 453 kts 82°
2026-04-30 06:09 -6.33895 111.26713 35895 ft 452 kts 82°
2026-04-30 06:10 -6.33072 111.32958 35893 ft 449 kts 82°
2026-04-30 06:10 -6.32257 111.39068 35855 ft 435 kts 82°
2026-04-30 06:11 -6.31459 111.45091 35865 ft 434 kts 82°
2026-04-30 06:11 -6.30663 111.51095 35861 ft 433 kts 82°
2026-04-30 06:12 -6.29863 111.57103 35854 ft 433 kts 82°
2026-04-30 06:12 -6.29072 111.63073 35857 ft 433 kts 82°
2026-04-30 06:13 -6.28277 111.69083 35862 ft 433 kts 82°
2026-04-30 06:13 -6.27475 111.75094 35873 ft 434 kts 82°
2026-04-30 06:14 -6.26666 111.81109 35868 ft 434 kts 81°
2026-04-30 06:14 -6.25855 111.87119 35876 ft 433 kts 81°
2026-04-30 06:15 -6.25043 111.93118 35871 ft 433 kts 82°
2026-04-30 06:15 -6.24234 111.99080 35877 ft 433 kts 81°
2026-04-30 06:16 -6.23408 112.05091 35873 ft 434 kts 81°
2026-04-30 06:16 -6.22586 112.11094 35870 ft 435 kts 81°
2026-04-30 06:17 -6.21752 112.17208 35865 ft 446 kts 82°
2026-04-30 06:17 -6.20911 112.23425 35859 ft 451 kts 81°
2026-04-30 06:18 -6.20055 112.29678 35864 ft 451 kts 81°
2026-04-30 06:18 -6.19207 112.35894 35859 ft 452 kts 81°
2026-04-30 06:19 -6.18346 112.42152 35857 ft 452 kts 81°
2026-04-30 06:19 -6.17478 112.48413 35862 ft 452 kts 81°
2026-04-30 06:20 -6.16616 112.54678 35873 ft 452 kts 81°
2026-04-30 06:20 -6.15757 112.60948 35863 ft 453 kts 81°
2026-04-30 06:21 -6.14901 112.67190 35872 ft 453 kts 81°
2026-04-30 06:21 -6.14034 112.73466 35874 ft 453 kts 81°
2026-04-30 06:22 -6.13172 112.79740 35868 ft 454 kts 81°
2026-04-30 06:22 -6.12310 112.86023 35879 ft 454 kts 81°
2026-04-30 06:23 -6.11439 112.92300 35883 ft 454 kts 81°
2026-04-30 06:23 -6.10576 112.98579 35883 ft 454 kts 81°
2026-04-30 06:24 -6.09717 113.04826 35883 ft 454 kts 81°
2026-04-30 06:24 -6.08845 113.11115 35882 ft 454 kts 81°
2026-04-30 06:25 -6.07971 113.17405 35882 ft 454 kts 81°
2026-04-30 06:25 -6.07102 113.23688 35881 ft 455 kts 81°
2026-04-30 06:26 -6.06227 113.29979 35885 ft 455 kts 81°
2026-04-30 06:26 -6.05496 113.35214 35883 ft 455 kts 81°
2026-04-30 06:27 -6.04623 113.41512 35887 ft 454 kts 81°
2026-04-30 06:27 -6.03757 113.47802 35886 ft 454 kts 81°
2026-04-30 06:28 -6.02886 113.54080 35884 ft 454 kts 81°
2026-04-30 06:28 -6.02007 113.60374 35884 ft 454 kts 81°
2026-04-30 06:29 -6.01131 113.66661 35885 ft 454 kts 81°
2026-04-30 06:29 -6.00258 113.72904 35882 ft 454 kts 81°
2026-04-30 06:30 -5.99378 113.79187 35881 ft 454 kts 81°
2026-04-30 06:30 -5.98494 113.85474 35881 ft 454 kts 81°
2026-04-30 06:31 -5.97614 113.91757 35882 ft 454 kts 81°
2026-04-30 06:31 -5.96730 113.98035 35872 ft 454 kts 81°
2026-04-30 06:32 -5.95848 114.04325 35883 ft 454 kts 81°
2026-04-30 06:32 -5.94981 114.10585 35884 ft 454 kts 81°
2026-04-30 06:33 -5.94107 114.16864 35884 ft 454 kts 81°
2026-04-30 06:33 -5.93222 114.23152 35894 ft 456 kts 81°
2026-04-30 06:34 -5.92334 114.29461 35885 ft 455 kts 81°
2026-04-30 06:34 -5.91450 114.35754 35865 ft 453 kts 81°
2026-04-30 06:35 -5.90566 114.42028 35863 ft 453 kts 81°
2026-04-30 06:35 -5.89675 114.48260 35874 ft 454 kts 81°
2026-04-30 06:36 -5.88778 114.54538 35878 ft 454 kts 81°
2026-04-30 06:36 -5.87897 114.60833 35879 ft 455 kts 81°
2026-04-30 06:37 -5.87025 114.67119 35876 ft 455 kts 81°
2026-04-30 06:37 -5.86144 114.73411 35871 ft 455 kts 81°
2026-04-30 06:38 -5.85247 114.79695 35872 ft 454 kts 81°
2026-04-30 06:38 -5.84347 114.85963 35865 ft 454 kts 81°
2026-04-30 06:39 -5.83450 114.92237 35868 ft 453 kts 81°
2026-04-30 06:39 -5.82566 114.98514 35876 ft 455 kts 81°
2026-04-30 06:40 -5.81683 115.04770 35868 ft 455 kts 81°
2026-04-30 06:40 -5.80788 115.11075 35877 ft 455 kts 81°
2026-04-30 06:41 -5.79898 115.17307 35878 ft 454 kts 81°
2026-04-30 06:41 -5.78992 115.23654 35880 ft 455 kts 81°
2026-04-30 06:42 -5.78099 115.29943 35880 ft 454 kts 81°
2026-04-30 06:42 -5.77219 115.36178 35868 ft 454 kts 81°
2026-04-30 06:43 -5.76322 115.42461 35865 ft 454 kts 81°
2026-04-30 06:43 -5.75419 115.48742 35866 ft 454 kts 81°
2026-04-30 06:44 -5.74516 115.55021 35872 ft 454 kts 81°
2026-04-30 06:44 -5.73622 115.61297 35877 ft 454 kts 81°
2026-04-30 06:45 -5.72720 115.67581 35873 ft 454 kts 81°
2026-04-30 06:45 -5.71820 115.73859 35876 ft 454 kts 81°
2026-04-30 06:46 -5.70919 115.80089 35870 ft 454 kts 81°
2026-04-30 06:46 -5.70022 115.86364 35858 ft 453 kts 81°